STARLINK-32547, 61919

Orbit data source: Space-Track

STARLINK-32547, 61919 is a payload satellite owned by SpaceX/Seattle (US) in LEO that was launched on Mon, 11 Nov 2024 UTC via an FALCON 9 launch vehicle from the Air Force Eastern Test Range (AFETR). Payloads include a variety of satellites, spacecraft, and rockets equipped with specific instruments for various scientific and technological missions. These include communications satellites like Starlink; space stations such as the ISS; scientific satellites like the Hubble; Earth observation satellites from companies like Planet Labs, Umbra, and HawkEye 360; GPS; miniature CubeSats for education and research; and military/defense satellites.

Loading next visibility...
STARLINK-32547 details
Identifier
61919, 2024-207H
Orbit
LEO
Last TLE update5 hours ago
Origin
Flag of USSpaceX/Seattle (US)
ManufacturerSpaceX/Seattle
MissionOperational spacecraft
Bus & MotorSTARLINK V2M, Unknown motor
Mass730 kg wet, ~700 kg dry
Launch date (UTC)
2024-11-11 (1 week ago)
Launch vehicle
FALCON 9
Launch site
Air Force Eastern Test Range (AFETR)
Object type
Payload
Rocket body
Debris
Shape & HBRUnknown
Radar Cross SectionRCS unknown

Expand to show TLE details & history

TLE from 5 hours ago
0 STARLINK-32547
1 61919U 24207H   24326.16667824 -.00715903  00000-0 -24572-2 0  9997
2 61919  43.0027  92.9303 0001452 264.8145 248.5415 15.90257128  2687
Epoch: 2024-11-21T04:00Z
Definitive object data (Epoch: 2024-11-21T04:00:00.999Z)
Latitude17.87092°
Longitude132.16672°
Altitude301.099 km
Speed7.73 km/s
True Right ascension16h 51m 17s
True Declination17° 45' 50"
Sunlit
Object was in daylight at TLE epoch
Visualization TLE readout
Latitude-32.18511°
Longitude-71.21129°
Altitude310.568 km
Speed7.723 km/s
Apparent Right ascension23h 26m 27s
Apparent Declination-62° 12' 06"
Sunlit
Object is in full shadow
Visualization observer readout
Local Sidereal Time06:13:27
Azimuth216.478° SW
Elevation-39.825°
Doppler factor1
Orbital elements
Apogee altitude304.53 km
Perigee altitude302.59 km
Semi-major axis6,681.697 km
Eccentricity0.0001452
Inclination43.0027°
RAAN92.9303°
Arg. of periapsis264.8145°
True anomaly248.52602°
Mean anomaly248.5415°
Eccentric anomaly248.53376°
Mean motion3.97386 °/min
BSTAR-0.0024572
Orbital period90.59 mins
Loading maneuver chart data...
Loading historical data...
Loading historical data...
Loading historical data...
Loading historical data...
Loading historical data...
Loading historical data...
Loading historical data...

STARLINK-32547 Visibility forecast

Observer location: undefined°, undefined

Span
Click to sort rows by Start time (UTC) header in descending order
Start Az.
Max El. time (UTC)
Max El. Az.
Max El.
End time (UTC)
End Az.
4 mins2024-11-21 12:38:27.978Z228.581° WSW2024-11-21 12:40:27.978Z142.075° SSE36.84°2024-11-21 12:42:27.978Z81.257° E
|